Location: Branche des Alpilles
(43.6087°N, 4.6976°E)
Time: 15:58:51
(UTC+00:00)

ISS - Visible Passes

Search period start: 23 September 2021 00:00
Search period end: 03 October 2021 00:00
Orbit: 419 x 423 km, 51.6° (Epoch: 23 September)

Date Brightness Start Highest point End Pass type
(mag) Time Alt. Az. Time Alt. Az. Time Alt. Az.
23 Sep -2.2 18:10:17 10° W 18:13:22 33° NNW 18:16:28 10° NE visible
23 Sep -1.5 19:48:19 10° NW 19:50:41 20° N 19:50:41 20° N visible
24 Sep -1.6 19:01:10 10° NW 19:03:48 21° N 19:05:32 15° NE visible
24 Sep -0.1 20:38:28 10° NW 20:38:31 10° NW 20:38:31 10° NW visible
25 Sep -1.7 18:13:58 10° WNW 18:16:43 22° N 18:19:28 10° NE visible
25 Sep -1.4 19:51:34 10° NW 19:53:21 20° NNW 19:53:21 20° NNW visible
26 Sep -1.8 19:04:35 10° NW 19:07:14 21° N 19:08:10 19° NNE visible
27 Sep -1.7 18:17:31 10° NW 18:20:07 20° N 18:22:44 10° NE visible
27 Sep -1.3 19:54:31 10° NW 19:55:58 21° NNW 19:55:58 21° NNW visible
28 Sep -2.3 19:07:38 10° NW 19:10:36 27° NNE 19:10:48 27° NNE visible
29 Sep -2.0 18:20:43 10° NW 18:23:31 23° NNE 18:25:40 14° ENE visible
29 Sep -1.1 19:57:24 10° NW 19:58:39 21° NW 19:58:39 21° NW visible
30 Sep -3.1 19:10:30 10° NW 19:13:32 47° N 19:13:32 47° N visible
01 Oct -2.8 18:23:38 10° NW 18:26:47 35° NNE 18:28:28 21° ENE visible
01 Oct -0.9 20:00:28 10° WNW 20:01:28 17° WNW 20:01:28 17° WNW visible
02 Oct -3.4 19:13:26 10° WNW 19:16:28 62° WSW 19:16:28 62° WSW visible
